User: anonymous   Login
Location: Unspecified
(0.0000°N, 0.0000°E)
Time: 22:16:11
(UTC+00:00)
Language:

BIRD NN - Orbit

View from above orbital plane
View from above orbital plane
View from above satellite
View from above satellite

Ground track
Ground track

The orbit data is extracted from the following two-line orbital elements,

1 42824U 98067MY  18343.83565687  .00041367  00000-0  24746-3 0  9994
2 42824  51.6329 182.7051 0005627 155.3116 204.8155 15.77398219 81448
Epoch (UTC): 09 December 2018 20:03:20
Eccentricity: 0.0005627
inclination: 51.6329°
perigee height: 334 km
apogee height: 341 km
right ascension of ascending node: 182.7051°
argument of perigee: 155.3116°
revolutions per day: 15.77398219
mean anomaly at epoch: 204.8155°
orbit number at epoch: 8144

The dashed part of the orbit path shows where the satellite is in the earth's shadow,  

DLR